SHT14L EGJJ-EGLL

Flight info

Callsign SHT14L
Flight time N/A
Altitude 21000
Route ORIST L982 ROXOG
Aircraft A20N/M-SDE2E3FGHIRWXY/LB1

Departure

Time 2026-05-07 17:25
Airport Jersey Airport (EGJJ)

Arrival

Time N/A
Airport London Heathrow Airport (EGLL)
Time Latitude Longitude Altitude Speed Heading
2026-05-07 17:09 49.20485 -2.19788 284 ft 0 kts 344°
2026-05-07 17:19 49.20466 -2.19778 288 ft 4 kts 327°
2026-05-07 17:19 49.20447 -2.19751 291 ft 4 kts 294°
2026-05-07 17:19 49.20443 -2.19719 284 ft 1 kts 264°
2026-05-07 17:21 49.20443 -2.19720 284 ft 1 kts 264°
2026-05-07 17:22 49.20439 -2.19772 287 ft 8 kts 264°
2026-05-07 17:22 49.20436 -2.19884 284 ft 12 kts 289°
2026-05-07 17:22 49.20506 -2.19939 288 ft 11 kts 312°
2026-05-07 17:22 49.20531 -2.20057 283 ft 13 kts 286°
2026-05-07 17:23 49.20563 -2.20216 286 ft 19 kts 286°
2026-05-07 17:23 49.20601 -2.20409 283 ft 17 kts 287°
2026-05-07 17:23 49.20626 -2.20590 283 ft 18 kts 272°
2026-05-07 17:23 49.20689 -2.20694 282 ft 16 kts 29°
2026-05-07 17:24 49.20714 -2.20558 282 ft 11 kts 84°
2026-05-07 17:24 49.20749 -2.20126 282 ft 82 kts 82°
2026-05-07 17:24 49.20855 -2.18878 351 ft 147 kts 83°
2026-05-07 17:24 49.21030 -2.17138 745 ft 186 kts 81°
2026-05-07 17:25 49.21231 -2.15074 1695 ft 204 kts 82°
2026-05-07 17:25 49.21448 -2.12839 2786 ft 216 kts 83°
2026-05-07 17:25 49.21650 -2.10554 3894 ft 214 kts 85°
2026-05-07 17:25 49.21845 -2.08318 4603 ft 218 kts 81°
2026-05-07 17:26 49.22453 -2.06139 4949 ft 226 kts 54°
2026-05-07 17:26 49.23716 -2.04746 5008 ft 232 kts 18°
2026-05-07 17:26 49.25336 -2.04391 5461 ft 240 kts
2026-05-07 17:26 49.27027 -2.04320 6509 ft 249 kts
2026-05-07 17:27 49.28844 -2.04270 7218 ft 273 kts 360°
2026-05-07 17:27 49.30800 -2.04202 8123 ft 287 kts 360°
2026-05-07 17:27 49.32820 -2.04117 9249 ft 294 kts 359°
2026-05-07 17:27 49.34887 -2.04022 10404 ft 300 kts 359°